Theta_e
287 287 287 287 287 288 288 287 287 287 287 287 287 286 286 285 285 285 284 284 285 284 283 283 282 282 281 281 281 280 280 280 280 280 280 280 280 280 279 278 278 278 278 278 278 278 278 278 278 278 277 277 277 276 276 276 277 277 276 276 276 276
287 287 287 286 286 286 287 286 286 286 286 286 286 285 285 284 284 284 284 284 284 284 283 282 282 281 281 281 280 280 280 280 280 280 280 280 280 279 278 278 278 278 278 278 278 278 278 278 278 277 277 276 276 276 276 276 276 276 275 275 275 277
286 286 286 286 286 286 286 286 286 286 285 285 285 285 284 284 284 284 284 284 284 283 282 282 281 281 281 280 280 280 279 280 280 280 280 279 279 278 278 278 278 278 278 278 278 278 278 278 277 277 276 276 275 274 275 274 275 275 274 274 274 275
286 285 285 285 285 285 285 286 285 285 284 285 285 285 284 284 284 284 284 284 283 283 282 281 281 281 281 280 279 279 279 279 279 279 279 279 278 278 278 278 278 278 278 278 278 278 277 277 277 277 276 275 275 274 275 274 274 274 273 273 273 273
286 285 285 285 285 285 285 285 285 285 285 284 284 285 284 285 284 284 284 283 283 282 282 281 281 281 280 280 279 279 279 279 279 279 279 278 278 278 278 278 278 278 278 278 277 277 278 278 277 277 276 275 275 275 274 274 273 273 273 273 273 273
286 285 285 284 285 285 285 285 286 285 285 284 284 284 284 284 284 283 283 283 282 281 281 281 281 280 280 279 279 279 278 279 279 279 279 278 278 278 278 278 278 278 277 277 277 278 277 277 276 276 276 275 275 274 274 273 273 273 273 273 272 272
285 285 285 285 285 285 285 286 285 285 285 284 284 284 284 283 283 283 283 282 281 281 281 280 280 280 279 279 279 279 278 278 278 279 278 278 278 278 277 277 277 277 277 278 278 277 277 276 276 276 276 275 274 273 273 273 273 272 272 272 272 275
285 285 285 285 285 285 285 285 285 285 284 284 284 284 283 283 283 283 282 282 281 281 281 280 280 280 280 279 279 279 278 278 278 278 278 278 278 277 277 277 277 278 278 278 278 277 276 276 276 276 276 275 273 273 273 273 273 272 272 272 272 274
285 285 285 285 285 285 285 285 285 284 284 283 283 283 283 282 282 282 282 281 281 281 281 280 281 281 280 280 279 279 278 278 278 278 278 278 278 278 277 277 277 278 278 278 278 277 276 276 276 275 275 274 273 273 273 272 272 271 271 271 272 272
286 285 285 284 284 284 284 285 285 285 284 283 283 283 283 283 282 282 282 281 281 281 281 281 281 281 280 280 279 279 278 278 278 278 278 278 278 278 278 277 278 278 278 277 277 277 276 276 275 275 274 274 273 274 273 272 271 271 271 272 272 272
286 285 285 284 284 283 284 284 285 285 284 283 283 283 283 283 283 282 282 281 281 281 281 281 281 280 280 279 279 278 278 278 278 278 278 278 278 278 278 278 278 278 277 277 276 276 276 276 275 275 274 274 274 274 273 272 271 272 272 272 271 271
286 286 285 284 284 283 284 284 284 284 284 283 283 283 283 283 283 282 282 281 281 281 280 280 280 280 279 279 278 279 278 278 278 277 277 277 278 278 278 278 278 278 277 276 276 276 276 275 275 277 279 279 275 273 272 272 271 272 272 272 272 271
286 285 285 284 284 284 284 284 284 284 284 283 283 283 283 283 283 282 282 281 281 280 280 280 280 279 279 279 279 278 278 278 277 277 277 277 277 278 277 277 277 277 277 276 276 275 275 275 275 279 282 282 280 274 272 272 272 272 272 272 272 271
286 286 285 285 285 284 284 284 284 284 284 284 283 283 283 283 283 282 281 281 280 280 280 280 280 279 279 278 278 278 278 277 276 276 277 277 277 277 277 277 277 277 277 276 276 275 275 275 278 281 283 283 282 279 273 272 272 272 272 272 272 271
288 287 287 286 286 285 286 286 285 285 285 284 284 283 282 282 282 282 281 281 280 280 280 280 279 279 279 278 278 278 277 276 276 276 276 277 277 277 276 276 276 276 276 276 275 275 275 275 278 282 284 284 284 282 276 271 271 271 271 272 271 271
288 288 287 287 287 287 286 286 286 285 285 284 283 283 282 282 282 282 282 281 280 280 279 279 279 279 279 278 277 276 276 276 276 276 276 277 277 277 277 276 276 276 276 275 275 275 274 274 277 282 284 284 284 283 279 270 271 271 271 271 271 271
289 288 287 287 287 286 285 285 285 284 284 284 283 282 282 282 282 282 281 280 280 279 279 279 279 278 278 277 276 276 276 276 276 276 276 277 277 277 276 276 276 276 275 275 275 274 273 273 277 281 284 284 285 285 282 271 272 271 271 272 272 271
289 288 288 287 286 286 285 285 285 284 283 283 283 282 282 282 282 281 281 280 279 279 279 279 278 278 277 276 276 276 277 277 277 276 276 276 277 277 276 276 275 275 275 274 273 272 272 271 278 281 283 284 285 285 279 272 272 271 271 271 272 272
288 288 287 286 286 285 285 285 284 284 283 283 283 282 282 282 282 281 281 280 279 279 279 279 278 277 277 276 276 276 277 277 276 276 276 275 275 275 274 274 274 274 274 273 271 271 271 270 275 281 283 284 285 284 274 272 271 271 271 271 271 271
286 286 287 286 285 285 285 284 284 284 283 283 283 282 282 282 282 282 281 280 280 279 279 278 278 277 277 276 276 277 277 277 276 276 275 275 275 274 274 273 273 272 272 272 270 270 270 270 273 280 282 284 285 283 274 272 271 271 270 270 270 270
287 287 287 286 285 284 284 284 284 283 283 283 282 282 282 282 282 282 281 281 280 279 278 278 278 278 277 277 277 277 277 277 277 276 275 275 274 274 273 272 271 270 268 269 269 272 271 270 272 278 281 283 284 282 274 272 270 270 270 270 269 269
286 286 286 286 285 284 284 284 284 284 283 283 282 282 282 282 282 282 281 280 280 279 279 279 278 278 278 278 278 278 277 277 275 275 274 274 274 273 271 270 270 270 270 268 267 268 270 270 268 271 280 283 283 284 274 271 270 270 270 269 268 267
287 286 286 286 284 284 284 285 284 284 283 283 282 282 282 283 282 281 280 280 279 279 278 278 279 278 278 279 278 278 276 276 276 275 274 273 272 271 269 269 269 269 269 268 267 267 268 269 268 269 278 281 283 284 281 271 271 271 271 268 267 267
285 285 285 285 285 285 285 285 284 284 283 282 281 282 282 281 281 280 279 279 279 278 278 278 278 279 279 278 277 276 275 275 275 275 274 272 271 271 271 269 268 269 269 268 267 267 267 268 271 268 274 279 282 283 284 275 272 272 269 268 267 267
284 284 284 284 284 285 285 285 284 283 282 282 282 282 281 280 280 279 279 278 278 278 278 278 277 278 277 277 277 276 276 274 274 273 272 272 270 270 270 269 268 268 268 267 267 266 267 267 267 273 270 275 280 282 283 283 277 277 272 268 268 268
283 282 282 283 284 284 285 285 283 282 281 282 280 279 279 279 279 278 278 277 277 277 277 277 277 277 276 276 276 276 275 274 273 272 272 271 271 270 270 270 268 267 268 268 269 268 267 266 265 269 274 273 276 279 282 283 283 281 274 270 269 269
282 281 281 281 282 283 284 284 283 281 281 280 279 279 278 278 277 278 277 277 276 276 276 275 275 275 275 276 276 275 275 273 271 272 270 269 270 270 270 270 269 268 269 269 269 270 269 266 265 264 267 273 275 277 278 280 282 282 282 276 272 271
281 281 280 279 279 280 281 281 283 281 280 277 277 277 277 277 277 277 277 276 275 274 273 274 272 273 274 274 275 276 276 275 272 273 271 269 270 270 270 270 269 268 268 268 269 270 269 264 263 264 263 267 270 273 276 278 279 280 280 281 278 276
280 279 279 279 277 277 277 277 277 277 276 276 276 276 276 276 277 276 274 273 272 270 271 273 272 270 269 269 270 271 272 271 272 272 271 270 270 270 270 270 269 269 268 268 269 268 264 263 262 262 261 262 263 264 267 269 272 276 278 278 278 279
280 279 279 278 276 275 274 275 274 271 272 272 274 273 274 275 275 275 273 271 270 269 268 271 269 270 267 266 268 270 267 267 270 271 272 271 270 270 270 269 268 269 268 267 266 263 262 265 262 262 262 262 263 264 265 267 268 270 271 273 275 276
277 277 277 276 273 273 273 272 271 270 271 271 270 273 274 273 270 270 268 266 268 268 266 268 269 269 268 266 261 263 265 269 267 268 266 263 263 265 266 266 266 266 263 264 265 264 266 266 266 265 269 266 269 266 265 265 267 268 270 272 275 274
276 275 274 272 272 272 272 270 269 267 267 265 267 271 272 269 269 267 266 267 266 265 265 265 264 263 265 266 266 264 262 266 272 269 267 266 271 274 275 274 268 265 263 264 265 266 267 268 267 273 275 275 275 275 275 273 273 272 271 272 275 275
273 273 272 271 270 270 269 267 265 265 264 265 266 267 269 269 269 268 266 265 266 266 265 264 264 262 262 262 262 261 263 262 264 273 275 274 273 274 275 276 277 277 275 269 265 267 274 275 276 277 277 277 276 276 277 277 277 276 275 275 272 271
273 273 272 269 269 268 267 265 262 262 262 261 262 264 266 268 270 270 268 267 264 266 265 263 263 262 262 260 260 260 260 261 261 263 271 274 274 276 276 276 276 277 277 278 275 270 265 272 276 276 276 276 277 277 277 277 278 278 278 277 277 270
272 271 270 268 267 266 265 263 260 260 260 260 261 262 264 264 267 266 264 263 263 264 264 262 262 261 262 260 259 258 259 261 260 262 261 264 272 273 274 275 276 277 277 277 277 278 276 274 274 275 276 276 276 277 277 277 278 278 279 279 275 273
270 270 269 267 265 264 262 260 259 258 258 259 259 261 263 262 263 262 261 261 261 262 261 261 260 261 260 259 260 259 261 259 259 258 259 259 259 262 267 273 274 274 274 275 276 276 276 276 276 277 277 277 277 277 277 277 276 278 279 278 274 274
269 267 266 265 263 261 259 258 258 257 257 258 258 261 261 261 261 260 261 262 261 259 260 260 261 260 258 259 258 258 259 259 259 258 257 257 259 259 257 257 260 267 272 271 271 273 274 274 274 274 275 275 275 276 277 277 274 273 274 275 274 274
264 263 262 261 260 259 258 257 257 257 256 256 256 258 259 259 259 259 260 259 259 259 259 258 258 259 259 258 256 257 258 258 259 257 256 257 256 255 255 255 255 258 265 269 269 270 270 271 272 272 272 273 273 273 274 269 269 270 270 271 271 271
Wind_Speed
10 10 10 8 8 7 7 7 8 7 7 9 11 13 11 11 9 9 8 10 9 10 11 10 9 8 8 7 7 7 9 9 8 8 8 7 6 7 7 7 7 7 6 6 6 5 5 4 5 5 5 5 6 4 5 4 5 6 5 3 4 3
11 11 11 11 10 9 8 8 7 9 9 9 8 7 8 8 10 10 12 10 10 10 9 8 8 8 8 8 9 9 9 9 9 9 8 9 7 6 7 7 7 7 8 6 7 6 5 6 5 5 5 4 4 5 6 5 6 6 6 3 2 3
8 8 8 8 7 7 8 9 11 10 9 10 10 12 11 12 11 11 11 10 10 12 12 11 9 9 8 8 8 9 8 8 8 8 8 7 7 7 8 7 8 8 8 8 7 7 7 6 5 4 5 4 4 3 4 4 5 7 5 5 4 3
8 8 8 8 10 10 12 11 10 10 11 11 11 11 12 13 12 12 11 10 10 12 12 11 8 9 9 9 9 9 9 9 9 8 8 8 7 7 8 8 7 7 8 7 7 6 5 5 5 6 6 6 5 4 3 5 5 5 5 4 5 3
10 11 12 13 14 13 13 12 12 12 12 12 12 13 13 12 12 10 10 11 11 12 10 10 10 10 10 11 9 9 9 9 8 8 10 9 8 6 7 8 8 8 7 7 6 6 6 6 6 6 6 6 6 7 5 5 5 6 6 5 4 4
8 9 12 12 12 12 14 13 12 12 12 12 11 14 13 10 10 10 11 10 11 10 10 11 10 11 11 11 9 11 9 9 8 8 8 8 8 9 6 6 7 7 7 7 7 6 7 7 6 6 6 7 6 6 6 5 4 4 4 5 4 4
12 13 12 12 12 11 13 13 14 13 12 11 12 11 11 10 9 10 11 11 12 11 12 11 11 12 12 11 10 11 10 9 9 8 9 9 8 7 7 6 6 7 8 9 9 8 8 8 7 8 7 6 5 6 6 5 5 4 4 4 4 4
9 9 11 11 12 13 12 12 12 11 11 11 9 11 10 11 10 11 12 12 13 12 13 13 12 13 13 12 11 11 11 10 10 10 8 9 10 8 8 9 8 8 9 8 8 8 8 7 7 8 8 8 6 5 5 5 5 4 4 4 4 4
16 14 12 12 11 10 11 11 11 11 11 11 10 10 11 11 11 11 12 12 13 12 13 13 13 13 12 12 11 10 10 10 10 10 11 9 10 10 10 8 9 7 8 8 8 8 8 8 7 7 7 7 6 6 6 5 4 4 4 4 4 4
12 13 14 11 11 10 10 11 12 13 13 13 12 11 11 10 12 12 12 13 13 13 14 13 11 11 11 10 10 10 10 10 10 10 9 9 10 10 11 11 10 8 7 8 8 7 7 7 7 7 7 7 7 7 6 6 5 5 4 4 4 4
15 15 13 14 11 13 13 11 12 11 10 10 10 10 12 11 12 12 12 12 14 14 12 11 10 9 10 10 10 10 11 11 10 9 9 9 9 8 9 8 9 9 8 7 7 7 6 8 8 7 8 8 7 7 7 7 6 6 5 4 4 3
12 13 13 12 15 15 14 13 13 13 13 13 12 12 11 11 13 13 13 14 14 11 11 11 10 10 10 11 12 12 11 10 10 10 10 10 9 8 8 8 8 8 9 9 8 7 7 8 6 8 13 11 9 8 6 6 6 6 5 6 5 4
12 10 12 15 17 18 16 15 14 13 12 12 13 13 13 12 13 13 12 13 10 10 10 10 11 11 12 11 10 9 11 11 9 9 9 9 9 9 8 8 9 9 8 9 9 9 8 7 7 12 15 14 13 8 7 7 6 6 6 5 6 6
15 16 18 18 18 17 16 15 14 13 15 14 13 12 11 12 12 12 11 10 9 10 12 11 11 11 11 10 11 10 9 8 8 9 9 9 9 8 7 9 10 9 8 7 8 9 9 8 9 15 15 15 15 11 8 6 6 6 6 6 6 5
18 20 19 16 15 16 17 15 13 16 14 13 11 9 11 12 11 11 10 9 10 10 11 11 12 11 10 10 10 9 8 9 9 9 9 11 9 7 9 10 9 10 8 9 10 10 9 8 11 15 16 16 15 15 10 6 6 7 6 6 6 6
10 11 12 11 11 12 10 11 12 9 7 8 8 10 10 11 10 10 10 9 9 9 10 10 10 10 10 9 8 8 9 10 12 10 8 7 7 9 8 8 10 9 9 10 10 9 8 8 10 15 16 15 16 16 12 6 6 6 6 6 6 5
12 10 10 12 11 9 10 9 8 8 9 9 9 8 9 9 9 8 8 9 8 9 8 11 10 10 9 9 9 9 10 11 9 9 9 9 10 11 12 11 10 10 9 9 8 8 8 8 12 15 16 16 16 17 12 6 5 6 6 6 6 6
11 11 9 7 11 11 11 11 9 10 10 9 11 9 9 9 9 9 8 9 9 11 11 11 10 10 8 9 9 10 11 11 11 11 9 8 7 6 5 6 6 8 9 8 7 7 10 8 14 16 16 17 16 17 8 7 7 7 6 6 7 7
8 9 9 9 10 11 10 10 10 10 10 10 9 10 10 10 11 12 12 11 10 11 11 12 11 10 9 9 10 11 12 11 10 8 6 8 8 9 9 10 9 8 9 8 9 10 10 7 12 16 17 17 18 12 6 7 6 7 8 8 7 7
8 9 11 10 10 10 10 11 12 11 11 11 10 10 10 10 12 12 11 11 11 12 11 10 10 10 10 10 12 13 11 8 6 8 8 11 11 11 11 9 7 7 7 9 10 11 10 10 11 16 17 17 18 13 8 7 7 7 8 8 7 6
10 10 11 12 11 9 10 12 12 11 10 10 10 10 11 12 13 12 13 13 10 9 9 9 9 10 10 11 12 10 10 10 11 8 7 8 7 8 6 6 7 7 6 7 9 7 10 9 9 15 17 18 19 13 7 8 7 8 9 8 8 6
10 9 11 12 11 10 12 12 11 11 11 10 9 10 13 15 14 12 10 8 8 9 8 8 9 10 10 11 9 8 9 7 6 7 8 8 7 7 6 6 7 8 8 7 7 8 10 10 8 9 18 18 19 18 9 7 8 10 11 9 8 7
8 9 9 8 10 10 10 10 10 10 9 10 10 13 15 10 8 8 8 7 7 7 8 7 9 11 9 9 9 9 6 7 8 7 8 8 7 6 6 7 7 8 8 7 8 8 9 9 9 10 17 18 19 20 15 9 11 11 9 8 8 8
8 8 8 7 9 10 10 10 11 9 9 9 12 14 6 7 8 7 7 8 8 8 8 8 7 8 8 7 6 7 7 6 6 7 8 6 7 8 8 7 6 8 8 7 7 8 10 8 11 8 13 19 20 20 21 11 12 10 8 8 8 8
8 7 7 6 7 8 9 10 10 9 8 11 12 5 6 6 7 7 7 7 7 7 8 7 8 8 6 7 8 8 8 7 7 6 7 7 7 8 9 8 8 7 8 7 8 8 9 9 8 14 11 16 20 21 21 20 11 13 8 9 11 10
7 8 5 5 5 6 7 9 9 8 9 10 3 5 5 6 6 6 6 6 6 6 7 7 7 7 6 8 8 8 8 7 7 7 7 8 8 8 8 8 7 7 8 10 10 9 9 7 7 10 15 12 17 19 20 22 23 19 10 9 10 8
10 8 7 4 5 5 6 6 10 9 8 4 5 5 6 6 6 6 6 6 6 6 6 5 6 7 6 6 8 8 7 6 6 8 6 7 7 7 9 9 7 9 10 9 10 11 8 6 6 6 8 14 15 17 19 20 23 23 22 12 9 8
8 9 9 5 4 5 4 4 7 10 5 4 5 5 6 7 7 6 6 5 5 5 5 6 5 5 5 6 6 8 7 9 9 9 7 7 8 8 9 9 7 9 8 9 10 10 6 2 4 5 4 6 9 11 16 18 19 20 22 22 12 13
9 9 9 8 4 5 4 5 5 4 4 5 5 5 6 6 6 5 5 5 5 4 5 6 6 5 4 5 4 5 6 6 6 7 7 8 8 8 9 9 8 8 8 9 9 5 3 3 2 3 3 3 5 6 7 8 11 16 18 14 12 13
10 9 8 8 5 4 5 5 5 4 4 4 4 5 5 6 6 7 6 6 5 6 5 6 6 7 5 5 5 6 4 4 6 7 9 9 9 8 8 7 7 7 7 7 6 4 5 7 5 5 5 6 7 8 8 8 8 8 7 9 8 6
7 6 7 6 4 5 5 5 4 4 5 4 4 5 6 6 4 4 5 5 5 5 4 6 6 6 7 6 4 3 3 6 6 6 3 1 5 5 6 6 6 7 5 6 7 7 8 8 8 6 8 10 11 10 8 8 9 8 8 11 11 6
7 7 7 5 4 5 6 5 4 4 4 3 2 4 6 5 5 4 4 4 4 3 4 3 3 3 4 5 5 3 1 3 3 4 5 4 3 6 9 7 7 4 5 6 6 6 8 9 6 6 11 14 15 17 18 16 15 14 11 11 16 11
6 7 7 5 4 5 5 6 4 5 6 5 3 2 5 5 5 3 3 3 3 3 3 3 4 2 3 2 3 2 3 1 1 1 4 5 5 6 6 8 9 9 9 8 5 6 12 14 14 14 14 14 13 15 16 18 18 18 17 16 10 10
6 7 7 4 6 6 6 7 6 6 6 6 6 3 3 4 5 5 5 4 3 3 3 3 3 3 4 2 2 2 3 2 1 4 3 1 4 6 7 8 9 10 11 12 10 6 5 9 11 12 12 13 14 13 14 15 17 18 18 17 17 10
5 6 6 6 7 7 6 7 6 6 6 6 5 3 3 2 2 2 2 2 2 3 3 3 3 3 4 3 3 2 2 3 2 2 4 4 4 2 5 7 7 8 9 9 10 11 8 7 8 10 11 12 12 14 14 15 17 17 18 19 13 10
6 6 6 7 7 7 7 7 6 8 7 5 5 4 6 5 5 3 3 3 3 4 2 3 2 3 2 2 3 3 3 2 3 3 1 1 5 4 3 5 6 7 7 7 7 6 7 9 10 11 10 10 12 14 15 15 13 17 19 16 10 9
8 7 7 7 7 7 8 7 6 6 6 6 5 5 6 6 6 5 7 7 5 3 3 3 3 3 3 4 3 3 3 3 2 3 3 2 1 1 1 3 5 7 9 6 6 10 12 12 12 13 13 14 14 13 14 14 8 7 6 8 8 8
9 7 6 7 7 7 8 7 6 7 6 5 4 6 6 6 5 5 5 5 4 5 4 3 4 3 5 5 3 3 3 3 4 4 2 2 1 2 0 2 3 2 6 8 9 12 12 13 13 12 13 13 14 15 15 7 6 6 6 5 5 6
Wind_Direction
186 183 182 180 180 181 180 170 171 174 179 181 176 175 176 170 167 161 162 164 164 168 169 168 166 162 155 150 148 146 148 149 151 153 148 139 146 144 145 146 144 139 133 132 134 136 138 133 126 119 113 117 127 135 137 141 135 131 132 147 134 156
185 181 177 176 176 174 177 174 174 181 181 178 178 169 162 163 167 167 168 173 164 164 160 166 163 158 155 155 154 156 157 156 154 151 151 158 150 152 153 151 149 144 140 145 145 146 147 140 130 126 128 128 142 148 141 150 137 134 139 145 136 146
181 178 174 171 168 173 174 179 184 185 179 181 176 171 174 174 174 171 171 165 169 163 169 167 163 160 153 153 160 155 156 157 155 158 153 142 159 158 159 156 150 147 148 150 155 154 154 146 144 146 147 141 147 148 144 140 138 135 141 135 132 134
178 173 169 170 170 178 182 184 181 185 185 183 179 178 179 176 175 176 169 170 165 170 166 163 159 154 155 157 158 158 160 162 160 155 150 161 163 166 162 156 152 150 153 153 155 154 149 151 155 159 154 153 150 155 156 146 140 139 146 141 143 142
179 178 177 180 184 184 182 183 188 188 187 184 185 181 186 180 176 172 165 164 166 169 164 158 160 158 160 160 163 164 165 162 157 159 161 165 164 171 164 159 155 156 154 152 155 155 160 163 166 167 157 160 162 163 164 160 153 152 156 156 157 152
174 177 187 186 187 185 186 187 188 189 190 189 182 188 180 177 172 167 166 164 165 162 159 164 160 160 163 166 169 168 167 162 162 164 166 165 164 165 166 159 158 155 159 158 161 166 167 168 171 168 168 166 167 167 164 162 160 158 161 158 159 156
186 192 190 189 189 189 189 190 190 187 190 188 186 185 178 172 169 168 168 165 161 164 166 168 166 167 169 170 171 171 166 166 163 168 170 164 168 167 157 164 163 163 165 170 172 172 175 178 172 169 173 171 171 169 163 163 160 162 162 162 163 167
187 193 197 193 194 192 190 191 189 187 188 190 184 179 175 177 172 175 168 168 166 170 173 172 171 174 174 172 171 171 169 167 170 171 174 172 167 166 171 168 174 175 177 175 176 177 176 174 177 179 178 171 167 166 164 161 162 164 162 165 169 169
199 198 195 198 194 191 189 188 187 186 186 187 187 183 177 176 176 175 173 173 172 172 178 176 178 175 174 174 172 167 169 172 174 174 175 176 169 169 172 177 176 183 180 178 175 179 179 178 180 183 178 169 166 165 163 166 166 169 167 172 175 181
194 193 196 191 193 188 186 188 188 187 187 188 185 180 179 178 178 178 178 175 176 180 182 180 176 175 175 171 167 170 172 173 177 180 172 167 173 176 179 178 181 181 178 179 180 180 176 180 183 188 181 172 170 167 170 170 173 173 178 177 181 177
201 195 188 190 181 187 189 186 189 187 187 186 184 180 187 179 177 180 181 182 184 186 179 172 173 172 169 167 167 171 176 180 179 174 172 175 178 181 181 179 177 174 177 178 181 180 183 190 194 188 181 173 175 174 173 177 178 177 178 180 181 182
199 195 188 182 187 187 188 189 189 189 186 187 184 183 184 175 187 183 185 189 190 179 171 171 169 170 167 169 175 178 177 177 176 175 175 180 180 178 178 177 179 182 182 179 183 186 190 201 202 201 189 181 174 175 174 173 181 180 181 181 189 195
197 188 190 195 192 190 189 190 189 187 188 185 184 187 182 180 185 190 189 193 185 172 165 167 174 170 176 178 172 174 177 178 176 175 177 179 180 180 178 176 180 187 188 187 185 189 198 203 208 203 193 187 180 168 172 177 183 182 182 191 189 200
195 195 198 197 195 190 187 187 186 183 193 187 185 182 172 182 188 188 191 190 176 171 172 174 170 173 177 173 180 178 177 170 171 178 180 179 182 183 170 183 191 189 190 187 192 199 203 208 208 203 198 191 186 176 176 175 178 183 192 194 199 198
200 200 200 196 193 191 193 184 177 192 189 180 179 162 174 185 186 186 187 186 183 177 173 171 173 176 175 182 179 171 166 172 177 181 182 190 185 167 182 192 185 195 192 191 195 204 206 213 212 206 202 196 192 186 173 181 179 184 197 198 199 196
206 204 202 200 198 194 181 180 185 175 157 156 151 168 174 181 187 187 188 183 185 176 173 173 172 178 182 177 170 168 173 177 188 189 186 176 171 184 188 190 195 195 196 197 200 204 205 211 216 210 205 200 197 193 179 181 185 192 196 200 198 199
196 186 184 186 176 165 157 166 162 146 143 149 157 166 171 182 181 185 185 186 182 172 173 176 179 182 180 175 171 173 180 186 188 184 186 182 185 185 192 193 195 200 198 201 199 201 208 216 214 214 208 204 200 200 180 177 184 193 203 206 201 202
188 185 180 146 148 160 164 164 153 152 158 154 162 165 173 176 183 188 184 189 185 183 181 178 182 182 176 173 174 179 188 191 191 189 184 181 190 197 189 203 201 200 201 200 194 201 218 221 214 216 212 207 203 203 176 176 187 196 205 209 209 207
158 150 139 148 155 155 162 150 149 149 147 158 167 167 174 180 189 194 194 193 188 187 185 183 180 181 178 176 180 190 194 192 191 190 173 183 192 191 196 201 200 200 198 196 197 204 219 220 218 215 214 209 206 202 173 182 187 200 206 217 212 213
129 137 142 145 151 154 148 148 150 151 155 164 166 170 180 187 199 196 191 195 193 190 184 182 178 179 182 181 191 195 196 193 191 190 180 187 191 197 203 198 198 200 199 199 206 206 210 221 216 215 215 212 208 200 187 188 192 206 214 223 222 209
139 138 136 142 150 152 145 146 146 148 160 164 170 175 184 197 202 194 196 199 189 182 180 180 180 183 183 191 197 193 191 192 194 188 179 198 193 206 192 186 198 208 211 213 214 210 215 227 220 218 218 214 211 205 182 187 194 209 222 220 225 218
115 128 143 153 151 142 142 141 147 156 163 173 167 182 199 205 200 197 195 184 177 176 177 179 182 187 188 196 195 191 199 187 168 175 183 196 197 196 189 193 201 209 219 210 213 220 220 223 227 221 222 218 215 210 184 188 187 217 223 218 218 217
136 145 145 135 133 136 137 139 145 163 168 166 176 201 209 198 183 185 181 171 169 173 178 181 185 189 196 194 194 189 183 178 185 177 182 192 191 188 194 198 207 214 225 211 217 221 230 222 225 226 223 224 219 217 197 195 208 218 218 217 216 221
100 96 90 108 130 135 142 146 157 162 163 169 197 211 180 167 176 167 163 169 173 176 177 182 189 191 193 186 169 175 189 192 182 184 187 182 182 196 207 206 210 217 229 225 221 224 231 227 224 223 227 228 227 223 216 200 218 212 206 218 227 228
109 114 119 125 132 136 143 149 155 161 163 188 206 169 160 164 158 161 163 166 167 173 180 184 185 188 182 183 183 182 192 179 181 183 174 180 188 199 210 214 212 217 233 237 234 232 232 230 231 227 225 231 233 231 229 225 217 214 206 213 233 229
104 103 99 107 121 135 143 149 148 157 177 199 145 145 141 145 147 147 154 164 173 175 184 187 189 188 183 183 179 185 185 183 185 181 186 185 188 197 212 222 208 215 232 235 242 236 233 228 223 236 235 234 239 244 241 241 239 230 214 211 234 236
120 111 101 94 114 124 140 148 150 169 178 177 142 140 143 138 139 144 161 171 177 184 183 176 184 187 187 182 175 182 189 186 172 188 196 179 198 202 213 221 199 213 226 234 240 244 235 216 218 233 243 245 245 245 249 249 248 246 241 229 229 221
112 118 119 96 104 119 123 139 155 160 174 149 130 137 130 136 137 157 170 169 170 172 156 173 186 185 186 181 188 194 191 185 184 194 186 187 205 207 213 220 204 218 224 233 243 245 248 197 203 228 226 240 262 262 257 257 259 255 252 251 240 220
124 131 134 137 139 128 113 108 85 111 133 133 137 131 134 137 147 147 149 157 154 146 159 173 181 180 180 186 192 198 191 182 186 190 190 194 204 211 216 222 214 222 226 235 246 271 310 260 225 218 209 212 230 250 262 267 263 258 255 252 253 249
137 141 143 142 138 108 103 92 84 78 89 106 114 125 124 137 152 158 164 161 156 162 163 172 166 168 182 192 180 194 201 199 183 192 204 200 206 204 222 218 222 228 230 245 268 286 289 270 243 221 205 212 216 228 233 241 248 247 244 252 251 249
124 132 127 121 109 104 97 99 84 65 92 120 130 132 128 136 140 135 147 152 149 167 174 174 176 177 178 184 191 207 186 183 189 199 221 231 166 191 201 211 228 223 214 219 226 236 262 264 255 240 207 218 216 218 222 231 234 232 233 235 237 244
121 120 115 117 119 112 112 95 63 44 38 53 98 120 123 130 125 128 150 154 158 154 157 161 159 155 161 171 178 181 294 305 192 183 178 229 231 199 212 201 218 210 192 215 232 197 226 255 262 251 240 238 236 236 234 233 231 230 230 230 232 232
114 110 108 122 115 106 97 81 46 38 20 24 19 84 123 133 135 148 153 155 176 167 169 147 148 140 132 137 143 145 170 242 344 336 217 208 213 228 235 236 239 227 207 196 234 239 240 254 270 278 276 274 266 256 254 253 250 245 239 231 222 233
121 120 125 118 108 102 94 79 43 27 12 12 6 29 112 140 147 168 184 175 157 143 140 142 138 135 128 108 104 132 141 150 213 313 339 321 249 246 243 243 250 257 262 256 245 218 239 266 271 275 280 277 272 268 263 260 256 251 242 234 224 225
118 110 111 108 108 97 87 76 37 15 9 4 360 20 85 86 101 112 111 114 120 119 119 123 124 135 134 140 126 117 123 140 163 200 290 333 8 310 260 262 264 268 265 265 276 280 265 238 231 253 274 277 277 271 266 263 263 259 253 247 238 229
102 102 104 101 96 94 82 65 24 5 346 355 357 35 74 72 72 89 113 129 131 109 106 109 123 124 134 128 129 139 139 151 151 161 168 345 338 355 352 5 22 25 25 8 349 338 338 334 329 326 316 295 273 270 270 268 265 263 259 254 247 243
93 80 74 84 83 80 71 55 12 356 347 1 4 48 60 64 70 71 65 68 82 97 113 109 109 113 114 114 126 133 139 140 127 130 132 148 154 308 318 294 326 353 17 17 13 358 351 351 350 348 342 341 339 335 324 315 306 293 284 266 261 257
75 72 65 72 77 76 68 42 4 356 359 7 32 62 66 64 67 69 67 61 65 78 81 88 96 112 119 126 123 121 122 122 126 115 123 100 104 119 130 315 323 324 329 12 25 13 5 356 353 350 348 346 346 343 348 343 323 315 302 298 292 293